Atqasuk Edward Burnell Sr Mem, AK

2:03 AM AKST on December 15, 2019 (GMT -0900)
Atqasuk Edward Burnell Sr Mem

Weather History for PATQ - September, 2019

Change the Weather History Date:

Wednesday, September 25, 2019

  Actual Average (PABR) Record (PABR)
Temperature  
Mean Temperature 34 °F 29 °F  
Max Temperature 39 °F 32 °F 46 °F (1984)
Min Temperature 30 °F 25 °F 7 °F (1924)
Degree Days  
Heating Degree Days 30 36  
Month to date heating degree days 797  
Since 1 July heating degree days 2352  
Cooling Degree Days 0 0  
Month to date cooling degree days 0  
Year to date cooling degree days 0  
Moisture  
Dew Point 33 °F    
Average Humidity 94    
Maximum Humidity 100    
Minimum Humidity 81    
Precipitation  
Precipitation 0.01 in 0.02 in 0.48 in (1978)
Month to date precipitation 0.63  
Year to date precipitation 3.68  
Snow  
Snow 0.00 in 0.20 in 4.00 in (1922)
Month to date snowfall 3.3  
Since 1 July snowfall 4.4  
Since 1 September snowfall 3.3  
Snow Depth -    
Sea Level Pressure  
Sea Level Pressure 29.86 in    
Wind  
Wind Speed 3 mph (South)    
Max Wind Speed 9 mph    
Max Gust Speed -    
Visibility 9 miles    
Events Rain    
T = Trace of Precipitation, MM = Missing Value Source: NWS Daily Summary

Daily Weather History Graph

Daily Weather History Graph

Search for Another Location

Airport or City:

Astronomy

Sep. 25, 2019 Rise Set
Actual Time 8:21 AM AKDT 8:18 PM AKDT
Civil Twilight 7:19 AM AKDT 9:20 PM AKDT
Nautical Twilight 6:00 AM AKDT 10:39 PM AKDT
Astronomical Twilight 4:13 AM AKDT 12:21 AM AKDT
Moon 12:17 AM AKDT (9/25) 9:41 PM AKDT (9/25)
Length of Visible Light 14h 01m
Length of Day
11h 56m
Waning Crescent, 13% of the Moon is Illuminated
Sep 25
Waning Crescent
Sep 28
New
Oct 5
First Quarter
Oct 13
Full
Oct 21
Last Quarter

Hourly Weather History & Observations

Time (AKDT) Temp. Windchill Dew Point Humidity Pressure Visibility Wind Dir Wind Speed Gust Speed Precip Events Conditions
12:56 AM 34.0 °F - 33.1 °F 96% 29.81 in 2.0 mi Calm Calm - N/A   Overcast
1:03 AM 33.8 °F - 33.8 °F 100% 29.79 in 1.2 mi Calm Calm - N/A   Overcast
1:31 AM 33.8 °F 29.6 °F 32.0 °F 93% 29.79 in 1.8 mi South 4.6 mph - N/A   Overcast
1:39 AM 33.8 °F 30.8 °F 32.0 °F 93% 29.79 in 1.5 mi SSW 3.5 mph - N/A   Overcast
1:46 AM 33.8 °F 30.8 °F 32.0 °F 93% 29.79 in 3.0 mi SSW 3.5 mph - N/A   Overcast
1:56 AM 33.1 °F - 33.1 °F 100% 29.82 in 10.0 mi Calm Calm - N/A   Overcast
2:16 AM 33.8 °F - 33.8 °F 100% 29.79 in 8.0 mi Calm Calm - 0.00 in Rain Light Rain
2:39 AM 33.8 °F - 33.8 °F 100% 29.80 in 10.0 mi Calm Calm - 0.00 in   Overcast
2:56 AM 34.0 °F - 33.1 °F 96% 29.82 in 8.0 mi Calm Calm - 0.00 in   Overcast
3:18 AM 35.6 °F 31.7 °F 33.8 °F 93% 29.80 in 10.0 mi South 4.6 mph - N/A   Overcast
3:25 AM 33.8 °F 29.6 °F 33.8 °F 100% 29.80 in 9.0 mi SSW 4.6 mph - N/A   Overcast
3:56 AM 33.1 °F - 32.0 °F 96% 29.83 in 10.0 mi Calm Calm - N/A   Overcast
4:48 AM 33.8 °F 29.6 °F 33.8 °F 100% 29.80 in 10.0 mi South 4.6 mph - N/A   Overcast
4:56 AM 33.1 °F 28.7 °F 33.1 °F 100% 29.82 in 10.0 mi SSE 4.6 mph - N/A   Overcast
5:25 AM 33.8 °F 29.6 °F 32.0 °F 93% 29.80 in 10.0 mi SE 4.6 mph - 0.00 in   Overcast
5:56 AM 33.1 °F 27.7 °F 32.0 °F 96% 29.83 in 10.0 mi South 5.8 mph - 0.00 in   Overcast
6:56 AM 33.1 °F - 32.0 °F 96% 29.83 in 10.0 mi Calm Calm - 0.00 in   Overcast
7:56 AM 33.1 °F - 32.0 °F 96% 29.84 in 10.0 mi Calm Calm - 0.01 in   Overcast
9:15 AM 33.8 °F 30.8 °F 33.8 °F 100% 29.82 in 10.0 mi SSE 3.5 mph - N/A   Overcast
9:53 AM 33.8 °F 29.6 °F 33.8 °F 100% 29.83 in 10.0 mi South 4.6 mph - N/A   Overcast
9:56 AM 34.0 °F 29.8 °F 33.1 °F 96% 29.86 in 10.0 mi South 4.6 mph - N/A   Overcast
10:24 AM 35.6 °F 32.8 °F 33.8 °F 93% 29.84 in 10.0 mi SSE 3.5 mph - N/A   Overcast
10:42 AM 35.6 °F 32.8 °F 35.6 °F 100% 29.84 in 10.0 mi South 3.5 mph - N/A   Overcast
10:44 AM 35.6 °F 32.8 °F 35.6 °F 100% 29.84 in 10.0 mi SSW 3.5 mph - N/A   Overcast
11:56 AM 35.1 °F 29.3 °F 34.0 °F 96% 29.88 in 10.0 mi SW 6.9 mph - N/A   Overcast
12:56 PM 37.9 °F 35.5 °F 35.1 °F 89% 29.89 in 10.0 mi SSW 3.5 mph - N/A   Scattered Clouds
1:21 PM 39.2 °F 37.0 °F 35.6 °F 87% 29.88 in 10.0 mi South 3.5 mph - N/A   Mostly Cloudy
1:56 PM 37.9 °F 35.5 °F 34.0 °F 86% 29.91 in 10.0 mi South 3.5 mph - N/A   Mostly Cloudy
2:18 PM 39.2 °F 37.0 °F 33.8 °F 81% 29.89 in 10.0 mi SE 3.5 mph - N/A   Scattered Clouds
2:29 PM 37.4 °F 34.9 °F 33.8 °F 87% 29.89 in 10.0 mi SE 3.5 mph - N/A   Mostly Cloudy
2:42 PM 39.2 °F 34.2 °F 35.6 °F 87% 29.90 in 10.0 mi SSE 6.9 mph - N/A   Scattered Clouds
2:56 PM 39.0 °F 35.7 °F 34.0 °F 82% 29.92 in 10.0 mi SE 4.6 mph - N/A   Mostly Cloudy
3:26 PM 39.2 °F 33.6 °F 33.8 °F 81% 29.91 in 10.0 mi SSE 8.1 mph - N/A   Scattered Clouds
4:56 PM 37.0 °F 31.0 °F 34.0 °F 89% 29.95 in 10.0 mi SSE 8.1 mph - N/A   Clear
7:56 PM 34.0 °F 28.0 °F 32.0 °F 92% 29.99 in 10.0 mi SSE 6.9 mph - N/A   Clear
8:56 PM 32.0 °F 24.2 °F 30.9 °F 96% 30.00 in 10.0 mi SSE 9.2 mph - N/A   Clear
10:56 PM 30.9 °F 23.5 °F 30.0 °F 96% 30.03 in 10.0 mi South 8.1 mph - N/A   Clear
11:56 PM 30.0 °F 23.2 °F 28.9 °F 96% 30.04 in 10.0 mi South 6.9 mph - N/A   Clear